Regional Weather Roundup
Issued by NWS

Home | Current Version | Previous Version | Graphics & Text | Print | Product List | Glossary On
Versions: 1 2 3 4 5 6 7 8 9 10 11 12 13 14 15 16 17 18 19 20 21 22 23 24 25 26 27 28 29 30 31 32 33 34 35 36 37 38 39 40 41 42 43 44 45 46 47 48 49 50
618
ASUS43 KMPX 260101
RWRMN
WEATHER ROUNDUP FOR MINNESOTA
NATIONAL WEATHER SERVICE TWIN CITIES/CHANHASSEN MN
800 PM CDT THU MAY 25 2017


NOTE: "FAIR" INDICATES FEW OR NO CLOUDS BELOW 12,000 FEET WITH NO
SIGNIFICANT WEATHER AND/OR OBSTRUCTIONS TO VISIBILITY. N/A MEANS
CURRENT SKY AND/OR WEATHER CONDITIONS ARE NOT AVAILABLE.

MNZ060>063-068>070-260200-
   Twin Cities Metro

CITY           SKY/WX    TMP DP  RH WIND       PRES   REMARKS
TWIN CITIES    MOCLDY    69  49  48 S7        29.66R
ST PAUL        PTCLDY    67  52  58 SE8       29.67R
CRYSTAL        MOCLDY    68  47  46 S12       29.64R
BLAINE         PTCLDY    68  52  56 S8        29.64S
LAKEVILLE      PTCLDY    66  52  59 S3        29.67R
EDEN PRAIRIE   PTCLDY    66  50  56 SE7       29.65R
SOUTH ST PAUL  MOCLDY    68  50  52 CALM      29.67R
LAKE ELMO      FAIR      64  54  68 S3        29.68R
$$
MNZ001>005-007-008-013>017-022>024-027-028-260200-
   Northwest Minnesota

CITY           SKY/WX    TMP DP  RH WIND       PRES   REMARKS
BEMIDJI        CLOUDY    59  49  69 SE8       29.61R
HALLOCK        CLOUDY    64  48  55 SE20      29.50S
ROSEAU         CLOUDY    64  48  55 SE15G21   29.56S
WARROAD        CLOUDY    63  48  59 SE12G17   29.58S
CROOKSTON      CLOUDY    64  48  55 SE14      29.53R
FOSSTON        CLOUDY    63  46  55 SE12G17   29.57S
DETROIT LAKES  CLOUDY    63  50  63 SE15      29.57S
MOORHEAD       CLOUDY    64  50  59 S15       29.53R
PARK RAPIDS    LGT RAIN  63  47  55 SE12      29.60R
MAHNOMEN       CLOUDY    63  48  58 SE12G18   29.55S
$$
MNZ006-009>011-018-025>026-260200-
   North Central Minnesota

CITY           SKY/WX    TMP DP  RH WIND       PRES   REMARKS
BAUDETTE       CLOUDY    63  46  54 SE9       29.60S
FLAG ISLAND    CLOUDY    59  50  72 S16       29.57R
INTL FALLS     CLOUDY    64  45  49 SE6       29.64R
WASKISH        CLOUDY    63  48  59 SE8       29.62R
BIG FORK       CLOUDY    63  46  55 SE3       29.65R
LONGVILLE      LGT RAIN  61  50  67 SE5       29.63S
GRAND RAPIDS   CLOUDY    63  48  58 SE7       29.67R
CRANE LAKE     PTCLDY    63  45  51 CALM      29.68R
COOK           MOCLDY    63  46  55 S5        29.67R
WALKER         CLOUDY    60  48  64 SE7       29.62R
$$
MNZ012-019>021-037-260200-
   Northeast Minnesota

CITY           SKY/WX    TMP DP  RH WIND       PRES   REMARKS
DULUTH         MOCLDY    57  44  62 E14       29.69R
ELY            CLEAR     63  45  51 SE7       29.69R
HIBBING        MOCLDY    60  46  59 SE12      29.66R
EVELETH        PTCLDY    60  41  50 SE7       29.70R
DULUTH HARBOR  PTCLDY    48  45  87 E8        29.71R
TWO HARBORS    CLOUDY    57  46  67 E7        29.70R
SILVER BAY     CLEAR     55  45  67 NE9       29.70S
GRAND MARAIS     N/A     51  43  74 NE7       29.72R
G MARAIS ARPRT CLEAR     57  37  47 E6        29.74S
$$
MNZ029>031-032-039>041-046>048-054>057-064-260200-
   West Central Minnesota

CITY           SKY/WX    TMP DP  RH WIND       PRES   REMARKS
FERGUS FALLS   CLOUDY    64  52  63 S14       29.55R
WHEATON        CLOUDY    63  55  77 SE8       29.57R
MORRIS         CLOUDY    64  54  68 SE14      29.56R
ALEXANDRIA     CLOUDY    61  51  70 SE9       29.60S
ELBOW LAKE     MOCLDY    62  53  72 E9        29.57R
WADENA         CLOUDY    61  50  67 SE10      29.60R
GLENWOOD       CLOUDY    61  54  77 E9        29.60R
APPLETON       CLOUDY    64  54  68 S7        29.58R
BENSON         CLOUDY    64  52  63 S9        29.60R
ORTONVILLE     CLOUDY    64  52  63 S9        29.57R
MADISON        CLOUDY    64  57  77 CALM      29.57R
WILLMAR        DRIZZLE   64  54  68 SE12      29.59F
$$
MNZ033>034-036-042>043-049>051-058-059-260200-
   Central Minnesota

CITY           SKY/WX    TMP DP  RH WIND       PRES   REMARKS
ST CLOUD       CLOUDY    65  50  58 SE9       29.63S
SAUK CENTRE    MOCLDY    60  52  75 E8        29.60F
PAYNESVILLE    CLOUDY    65  48  55 SE9       29.61S
AITKIN         CLOUDY    63  48  59 SE5       29.63S
PINE RIVER     CLOUDY    59  54  82 SE6       29.67S
BRAINERD       LGT RAIN  63  49  60 SE6       29.63S
STAPLES        DRIZZLE   59  50  72 SE5       29.62R
LONG PRAIRIE   DRIZZLE   59  52  77 E9        29.61F
LITTLE FALLS   LGT RAIN  59  50  72 E5        29.63S
LITCHFIELD     RAIN      66  52  59 SE8       29.63R
BUFFALO        MOCLDY    66  49  55 SE6       29.65F
MAPLE LAKE     MOCLDY    66  53  62 SE5       29.64F
HUTCHINSON     LGT RAIN  64  55  73 SE9       29.64R
$$
MNZ037-044-045-052-053-260200-
   East Central Minnesota

CITY           SKY/WX    TMP DP  RH WIND       PRES   REMARKS
PRINCETON      CLOUDY    66  52  59 SE6       29.65S
MORA           PTCLDY    64  48  55 SE6       29.67S
CAMBRIDGE      CLOUDY    68  52  56 SE3       29.64S
RUSH CITY      MOCLDY    65  50  59 S5        29.67R
MOOSE LAKE     CLOUDY    54  43  66 E5        29.67R
HINCKLEY       FAIR      64  54  68 S3        29.66S
CLOQUET        CLOUDY    55  43  62 E7        29.69R
MCGREGOR       CLOUDY    59  46  63 E7        29.67R
$$
MNZ071>073-080-081-089-090-097-098-260200-
   Southwest Minnesota

CITY           SKY/WX    TMP DP  RH WIND       PRES   REMARKS
MONTEVIDEO     CLOUDY    63  55  77 S7        29.58R
CANBY          CLOUDY    63  56  76 CALM      29.58R
MARSHALL       CLOUDY    63  56  78 SE10      29.58S
REDWOOD FALLS  CLOUDY    65  53  65 SE13      29.59S
OLIVIA         CLOUDY    63  52  67 SE12      29.60R
PIPESTONE      MOCLDY    66  48  52 S13       29.58R
WINDOM         CLOUDY    64  52  63 SE9       29.62S
WORTHINGTON    CLOUDY    67  53  61 SE7       29.62R
JACKSON        CLOUDY    64  52  63 SE3       29.63S
TRACY          CLOUDY    65  57  74 SE8       29.59S
SLAYTON        CLOUDY    64  54  70 SE7       29.60F
$$
MNZ065>067-074>077-082>085-091>093-260200-
   South Central Minnesota

CITY           SKY/WX    TMP DP  RH WIND       PRES   REMARKS
MANKATO        LGT RAIN  64  52  64 SE9       29.65R
NEW ULM        CLOUDY    63  54  72 SE6       29.63R
ST JAMES       CLOUDY    64  52  63 SE10      29.64R
FAIRMONT       CLOUDY    64  52  64 SE10      29.64R
GLENCOE        LGT RAIN  65  57  74 SE7       29.63S
FARIBAULT      CLOUDY    66  54  63 SE7       29.67R
OWATONNA       CLOUDY    66  50  55 S6        29.67R
WASECA         MOCLDY    63  50  63 SE3       29.67S
ALBERT LEA     MOCLDY    66  52  59 SE5       29.67R
$$
MNZ078>079-086>088-094>096-260200-
   Southeast Minnesota

CITY           SKY/WX    TMP DP  RH WIND       PRES   REMARKS
ROCHESTER      CLEAR     63  55  75 SE6       29.69R
RED WING       CLEAR     66  48  52 CALM      29.67R
STANTON        LGT RAIN  68  52  55 S3        29.66R
DODGE CENTER   PTCLDY    64  52  63 S6        29.68R
WINONA         PTCLDY    68  54  60 CALM      29.67S
AUSTIN         LGT RAIN  64  52  63 CALM      29.67S
PRESTON        CLEAR     64  51  63 SE3       29.69R
$$
ABBREVIATIONS USED IN REMARKS
   TC - TEMPERATURES IN CELSIUS
  WCI - WIND CHILL INDEX
   HX - HEAT INDEX
  VSB - VISIBILITY
$$




USA.gov is the U.S. government's official web portal to all federal, state and local government web resources and services.